Location: Unspecified
(49.2170°N, 0.0000°E)
Time: 14:52:57
(UTC+00:00)

Tiros 1 despin weight - Pass Details

Date: 21 January 2021
Orbit: 593 x 642 km, 48.2° (Epoch: 07 March)

Event Time Altitude Azimuth Distance (km) Brightness Sun altitude
Rises 17:46:03 0° 263° (W) 2,862 ? -10.8°
Reaches altitude 10° 17:48:22 10° 262° (W) 1,951 ? -11.2°
Maximum altitude 17:52:50 79° 177° (S) 616 ? -11.9°
Enters shadow 17:56:11 17° 91° (E) 1,514 ? -12.4°
Drops below altitude 10° 17:57:16 10° 90° (E) 1,931 - -12.6°
Sets 17:59:32 0° 90° (E) 2,829 - -12.9°
